Regional Weather Roundup
Issued by NWS

Home | Current Version | Previous Version | Graphics & Text | Print | Product List | Glossary On
Versions: 1 2 3 4 5 6 7 8 9 10 11 12 13 14 15 16 17 18 19 20 21 22 23 24 25 26 27 28 29 30 31 32 33 34 35 36 37 38 39 40 41 42 43 44 45 46 47 48 49 50
000
ASUS43 KMPX 260910
RWRMN
WEATHER ROUNDUP FOR MINNESOTA
NATIONAL WEATHER SERVICE TWIN CITIES/CHANHASSEN MN
400 AM CDT FRI MAY 26 2017


NOTE: "FAIR" INDICATES FEW OR NO CLOUDS BELOW 12,000 FEET WITH NO
SIGNIFICANT WEATHER AND/OR OBSTRUCTIONS TO VISIBILITY. N/A MEANS
CURRENT SKY AND/OR WEATHER CONDITIONS ARE NOT AVAILABLE.

MNZ060>063-068>070-261000-
   Twin Cities Metro

CITY           SKY/WX    TMP DP  RH WIND       PRES   REMARKS
TWIN CITIES    CLOUDY    61  52  72 S9        29.70S
ST PAUL        CLOUDY    60  56  86 SE7       29.71S
CRYSTAL        CLOUDY    61  51  70 SE9       29.68S
BLAINE         PTCLDY    63  55  77 SE9       29.70S
LAKEVILLE      MOCLDY    57  55  94 CALM      29.70S
EDEN PRAIRIE   MOCLDY    60  52  74 SE7       29.68F
SOUTH ST PAUL  CLOUDY    60  54  81 SE3       29.71S
LAKE ELMO      CLOUDY    61  55  82 SE7       29.72S
$$
MNZ001>005-007-008-013>017-022>024-027-028-261000-
   Northwest Minnesota

CITY           SKY/WX    TMP DP  RH WIND       PRES   REMARKS
BEMIDJI        CLOUDY    55  51  86 SE7       29.63S
HALLOCK        CLEAR     48  45  87 S5        29.56S
ROSEAU         MOCLDY    57  52  82 S10       29.57R
WARROAD        CLOUDY    57  52  82 S8        29.58S
THIEF RVR FALL PTCLDY    53  50  89 S7        29.60R
CROOKSTON      CLEAR     50  48  93 SW5       29.59S
FOSSTON        CLEAR     54  48  82 S7        29.61S
DETROIT LAKES  PTCLDY    52  50  93 S5        29.63S
MOORHEAD       CLEAR     54  52  94 S3        29.61S
PARK RAPIDS    CLOUDY    56  50  80 SE8       29.63S
MAHNOMEN       FAIR      55  51  85 S6        29.60S
$$
MNZ006-009>011-018-025>026-261000-
   North Central Minnesota

CITY           SKY/WX    TMP DP  RH WIND       PRES   REMARKS
BAUDETTE       CLOUDY    58  50  75 SE10      29.61S
FLAG ISLAND    CLOUDY    57  52  82 S17       29.57S
INTL FALLS     CLOUDY    54  50  86 SE9       29.66F
WASKISH        CLOUDY    57  52  82 SE8       29.62F
BIG FORK       CLOUDY    54  52  94 SE6       29.67S
LONGVILLE      PTCLDY    54  52  94 SE3       29.65F
GRAND RAPIDS   CLOUDY    52  50  93 SE6       29.70S
CRANE LAKE     DRIZZLE   52  48  87 CALM      29.73R
ORR            DRIZZLE   50  46  87 SE5       29.69R
COOK           RAIN      52  48  87 CALM      29.72S
WALKER         FAIR      56  51  84 SE5       29.64S
$$
MNZ012-019>021-037-261000-
   Northeast Minnesota

CITY           SKY/WX    TMP DP  RH WIND       PRES   REMARKS
DULUTH         LGT RAIN  49  47  93 E5        29.74S
ELY            LGT RAIN  54  45  71 S5        29.74R
HIBBING        LGT RAIN  49  49 100 SE7       29.72S FOG
EVELETH        DRIZZLE   53  48  85 CALM      29.74S
DULUTH HARBOR  RAIN      46  45  93 NE6       29.76S
TWO HARBORS    LGT RAIN  50  45  81 CALM      29.73F
SILVER BAY     LGT RAIN  52  48  87 CALM      29.74R
GRAND MARAIS     N/A     50  44  80 NE5       29.76S
G MARAIS ARPRT PTCLDY    52  41  66 E3        29.78S
$$
MNZ029>031-032-039>041-046>048-054>057-064-261000-
   West Central Minnesota

CITY           SKY/WX    TMP DP  RH WIND       PRES   REMARKS
FERGUS FALLS   CLOUDY    52  52 100 S7        29.62R
WHEATON        PTCLDY    52  48  87 CALM      29.64S
MORRIS         PTCLDY    52  52 100 SE6       29.63S
ALEXANDRIA     MOCLDY    54  51  90 S7        29.66R
ELBOW LAKE     FAIR      51  51  98 SE7       29.64R
WADENA         PTCLDY    54  50  87 S6        29.64R
GLENWOOD       PTCLDY    54  52  94 S6        29.66R
APPLETON       CLOUDY    55  52  88 CALM      29.64S
BENSON         CLOUDY    54  50  87 S6        29.66S
ORTONVILLE     CLOUDY    54  50  87 S3        29.64R
MADISON        CLOUDY    54  54 100 CALM      29.64S FOG
WILLMAR        FAIR      54  52  94 SE5       29.68S
$$
MNZ033>034-036-042>043-049>051-058-059-261000-
   Central Minnesota

CITY           SKY/WX    TMP DP  RH WIND       PRES   REMARKS
ST CLOUD       CLOUDY    58  54  86 SE5       29.67S
SAUK CENTRE    FAIR      54  51  89 SE3       29.66S
PAYNESVILLE    CLOUDY    58  50  74 S7        29.67S
AITKIN         CLOUDY    54  52  94 E5        29.66S
PINE RIVER     PTCLDY    54  54 100 SE5       29.69S
BRAINERD       PTCLDY    55  53  93 SE5       29.67R
STAPLES        PTCLDY    55  50  82 SE6       29.65R
LONG PRAIRIE   CLOUDY    54  50  87 SE8       29.66S
LITTLE FALLS   CLOUDY    55  52  88 SE5       29.67R
LITCHFIELD     CLOUDY    63  54  72 S3        29.68R
BUFFALO        CLOUDY    59  52  76 SE3       29.69S
MAPLE LAKE     CLOUDY    60  55  81 CALM      29.69R
HUTCHINSON     CLOUDY    60  53  77 SE5       29.69S
$$
MNZ037-044-045-052-053-261000-
   East Central Minnesota

CITY           SKY/WX    TMP DP  RH WIND       PRES   REMARKS
PRINCETON      CLOUDY    63  55  77 SE6       29.69S
MORA           CLOUDY    55  52  88 SE5       29.71S
CAMBRIDGE      CLOUDY    63  54  72 SE5       29.68S
RUSH CITY      CLOUDY    57  54  90 CALM      29.71S
MOOSE LAKE     CLOUDY    46  45  93 E3        29.70S
HINCKLEY       CLOUDY    55  54  94 E5        29.71S
CLOQUET        CLOUDY    46  45  93 E5        29.73S
MCGREGOR       CLOUDY    50  50 100 E6        29.70S
$$
MNZ071>073-080-081-089-090-097-098-261000-
   Southwest Minnesota

CITY           SKY/WX    TMP DP  RH WIND       PRES   REMARKS
MONTEVIDEO     CLOUDY    55  52  88 S5        29.65S
CANBY          CLOUDY    58  52  79 CALM      29.66S
MARSHALL       CLEAR     55  50  83 SW9       29.65F
REDWOOD FALLS  CLOUDY    57  51  80 S3        29.66S
OLIVIA         CLOUDY    55  52  88 S5        29.66S
PIPESTONE      PTCLDY    54  46  76 CALM      29.67S
WINDOM         CLOUDY    57  52  82 S5        29.68R
WORTHINGTON    PTCLDY    58  52  80 S9        29.68S
JACKSON        CLOUDY    59  50  72 S5        29.69S
TRACY          PTCLDY    57  53  86 SW9       29.66S
SLAYTON        CLOUDY    51  49  92 CALM      29.69R
$$
MNZ065>067-074>077-082>085-091>093-261000-
   South Central Minnesota

CITY           SKY/WX    TMP DP  RH WIND       PRES   REMARKS
MANKATO        CLOUDY    59  51  75 S9        29.69S
NEW ULM        CLOUDY    57  52  82 S6        29.68S
ST JAMES       CLOUDY    61  52  72 S7        29.68F
FAIRMONT       CLOUDY    58  52  80 S7        29.69S
GLENCOE        CLOUDY    61  55  79 S3        29.68R
FARIBAULT      PTCLDY    55  52  88 SE3       29.71S
OWATONNA       CLOUDY    57  50  77 SE8       29.71S
WASECA         CLOUDY    55  50  82 SE7       29.72S
ALBERT LEA     CLOUDY    59  54  82 S5        29.71S
$$
MNZ078>079-086>088-094>096-261000-
   Southeast Minnesota

CITY           SKY/WX    TMP DP  RH WIND       PRES   REMARKS
ROCHESTER      CLEAR     55  53  93 SE7       29.74F
RED WING       CLOUDY    61  52  72 SE6       29.72S
STANTON        MOCLDY    61  53  74 S6        29.70S
DODGE CENTER   CLEAR     54  50  87 SE3       29.73S
WINONA         CLOUDY    57  55  94 CALM      29.76S
AUSTIN         CLOUDY    57  50  77 CALM      29.72S
PRESTON        CLOUDY    57  52  84 SE8       29.75F
$$
ABBREVIATIONS USED IN REMARKS
   TC - TEMPERATURES IN CELSIUS
  WCI - WIND CHILL INDEX
   HX - HEAT INDEX
  VSB - VISIBILITY
$$




USA.gov is the U.S. government's official web portal to all federal, state and local government web resources and services.